Powrót do katalogu

STARLINK-32253

AktywnyŁącznośćVLEO
NORAD 60733·PAYLOAD·🇺🇸 United States

Wystrzelony Aug 28, 2024 z Cape Canaveral Space Force Station

Loading…

Następne Przeloty (najbliższe 24 godziny)

TLE

ŚwieżeSource: CelesTrak SupGP

Epoka: Sep 14, 2026, 22:24 UTC

1 60733C 24152P   26257.93381944 -.00002417  00000+0 -71421-4 0  2577
2 60733  53.1567 107.4315 0001219  85.2439 242.5484 15.34385702    11

Śledź STARLINK-32253 w czasie rzeczywistym z AllMySat

Download on the App Store